Retour au catalogue

FENGYUN 1C DEB

LostSSO
NORAD 39535·DEBRIS·🇨🇳 China

Lancé May 10, 1999 depuis Taiyuan Satellite Launch Center

Loading…

Prochains Passages (prochaines 24 heures)

TLE

PériméSource: Space-Track

Époque: Jul 19, 2022, 11:21 UTC

1 39535U 99025EWC 22200.47306642  .00001305  00000-0  86149-3 0  9998
2 39535  99.0549 294.4240 0060956  92.3879 268.4267 14.02556777487145

Suivez FENGYUN 1C DEB en temps réel avec AllMySat

Download on the App Store